THORAD AGENA D DEB, 42495

Orbit data source: Space-Track

THORAD AGENA D DEB, 42495 is space debris in SSO originally from a launch on Wed, 08 Apr 1970 UTC launched from the Air Force Western Test Range (AFWTR). Debris objects in space refer to the collection of defunct objects orbiting the Earth. Examples of debris include non-operational satellites, rocket bodies, and fragments generated from explosions, collisions, or faulty payload assembly.

Loading next visibility...
Identifier
42495, 1970-025QZ
Orbit
SSO
Country
Flag of USUS
Related business
Manufacturer
Unknown
Mission
Spacecraft
Bus & Motor
Unknown
Mass
Unknown
Launch date (UTC)
1970-04-08 (56 years ago)
Launch vehicle
Unknown
Launch site
Air Force Western Test Range (AFWTR)
Object type
Payload
Rocket body
Debris
Shape & HBR
Unknown shape, 0.1 m
Radar Cross Section
Small (<0.1 m²)

Expand to show TLE details & history
Last TLE update: 1 week ago

TLE from 1 week ago
0 THORAD AGENA D DEB
1 42495U 70025QZ  26200.15186301  .00000002  00000-0  68182-4 0  9994
2 42495  99.9646 269.8972 0027771  56.1395 304.2379 13.56616290626141
Epoch: 2026-07-19T03:38Z
TLE epoch observation values (Epoch: 2026-07-19T03:38:40.964Z)
Latitude
-0.00001°
Longitude
-81.72785°
Altitude
1,039.234 km
Speed
7.338 km/s
True Right ascension
17h 59m 35s
True Declination
0° 00' 00"
Sunlit
Object was in full shadow at epoch
Visualization orbit readout
Latitude
Unknown
Longitude
Unknown
Altitude
Unknown
Speed
Unknown
Apparent Right ascension
Unknown
Apparent Declination
Unknown
Sunlit
N/A
Visualization observer readout
Local Sidereal Time
07:36:57
Azimuth
Unknown
Elevation
Unknown
Doppler factor
Unknown
Orbital elements
Apogee altitude
1,065.937 km
Perigee altitude
1,024.705 km
Semi-major axis
7,423.458 km
Eccentricity
0.00278
Inclination
99.9646°
RAAN
269.8972°
Arg. of periapsis
56.1395°
True anomaly
303.9743°
Mean anomaly
304.2379°
Eccentric anomaly
304.10615°
Mean motion
3.39339 °/min
Orbital period
106.09 mins
BSTAR
0.000068182
Loading maneuver chart data...
Computing Atmospheric mass density...

Documentation

Showing up to 5 results
|